Tracking 31027 objects as of 19-Jul-2025
HD Live streaming from Space Station
objects crossing your sky now

OPS 7323 (DMSP 5B F3)

Track OPS 7323 (DMSP 5B F3) now!
10-day predictions
OPS 7323 (DMSP 5B F3) is classified as:


NORAD ID: 6275
Int'l Code: 1972-089A
Perigee: 775.7 km
Apogee: 824.5 km
Inclination: 98.5 °
Period: 100.7 minutes
Semi major axis: 7171 km
RCS: 1.5352 m2 (large)
Launch date: November 9, 1972
Source: United States (US)
Launch site: AIR FORCE WESTERN TEST RANGE (AFWTR)
Your satellite tracking list
STARLINK-1243
Track 1 satellite(s)




NASA's NSSDC Master Catalog

Two Line Element Set (TLE):
1 06275U 72089A   25199.43516647  .00000240  00000-0  10990-3 0  9996
2 06275  98.5009   8.4470 0034029 221.9630 137.8944 14.29641448736989
Source of the keplerian elements: AFSPC